Grand Forks, ND

2:57 PM CDT on May 25, 2017 (GMT -0500)
Grand Forks International

Weather History for KGFK - October, 2011

Change the Weather History Date:

Tuesday, October 25, 2011

  Actual Average Record
Temperature  
Mean Temperature 45 °F 39 °F  
Max Temperature 54 °F 49 °F 78 °F (1977)
Min Temperature 36 °F 28 °F 15 °F (1988)
Degree Days  
Heating Degree Days 20 26  
Month to date heating degree days 321 512  
Since 1 July heating degree days 539 863  
Cooling Degree Days 0 0  
Month to date cooling degree days 25 0  
Year to date cooling degree days 538 378  
Moisture  
Dew Point 32 °F    
Average Humidity 65    
Maximum Humidity 92    
Minimum Humidity 38    
Precipitation  
Precipitation T in 0.06 in 0.75 in (1956)
Month to date precipitation 0.27 1.66  
Year to date precipitation 18.92 18.94  
Snow  
Snow 0.00 in 0.10 in 1.70 in (1959)
Month to date snowfall 0.0 1.0  
Since 1 July snowfall 0.0 1.0  
Since 1 September snowfall 0.0 1.0  
Snow Depth 0.00 in    
Sea Level Pressure  
Sea Level Pressure 30.05 in    
Wind  
Wind Speed 4 mph (NE)    
Max Wind Speed 17 mph    
Max Gust Speed 20 mph    
Visibility 10 miles    
Events Rain    
T = Trace of Precipitation, MM = Missing Value Source: NWS Daily Summary

Daily Weather History Graph

Daily Weather History Graph

Search for Another Location

Airport or City:

Trip Planner

Search our weather history database for the weather conditions in past years. The results will help you decide how hot, cold, wet, or windy it might be!

Date:

Astronomy

Oct. 25, 2011 Rise Set
Actual Time 8:02 AM CDT 6:22 PM CDT
Civil Twilight 7:30 AM CDT 6:54 PM CDT
Nautical Twilight 6:54 AM CDT 7:30 PM CDT
Astronomical Twilight 6:18 AM CDT 8:06 PM CDT
Moon 6:34 AM CDT 5:24 PM CDT
Length of Visible Light 11h 23m
Length of Day
10h 19m
Waning Crescent, 2% of the Moon is Illuminated
Oct 25
Waning Crescent
Oct 26
New
Nov 2
First Quarter
Nov 10
Full
Nov 18
Last Quarter

Hourly Weather History & Observations

Time (CDT) Temp. Windchill Dew Point Humidity Pressure Visibility Wind Dir Wind Speed Gust Speed Precip Events Conditions
12:53 AM 43.0 °F 41.3 °F 33.1 °F 68% 30.04 in 10.0 mi East 3.5 mph - N/A   Overcast
1:53 AM 43.0 °F 41.3 °F 33.1 °F 68% 30.04 in 10.0 mi ESE 3.5 mph - N/A   Mostly Cloudy
2:53 AM 41.0 °F 38.0 °F 32.0 °F 70% 30.03 in 10.0 mi East 4.6 mph - N/A   Mostly Cloudy
3:53 AM 41.0 °F - 32.0 °F 70% 30.03 in 10.0 mi Calm Calm - N/A   Mostly Cloudy
4:53 AM 37.9 °F - 33.1 °F 83% 30.03 in 10.0 mi Calm Calm - N/A   Mostly Cloudy
5:53 AM 36.0 °F 32.1 °F 33.1 °F 89% 30.03 in 10.0 mi North 4.6 mph - N/A   Mostly Cloudy
6:53 AM 37.4 °F 33.8 °F 33.8 °F 87% 30.02 in 10.0 mi North 4.6 mph - N/A   Overcast
7:53 AM 37.0 °F 33.3 °F 32.0 °F 82% 30.05 in 10.0 mi North 4.6 mph - N/A   Overcast
8:53 AM 37.9 °F 34.4 °F 33.1 °F 83% 30.05 in 10.0 mi NNE 4.6 mph - N/A   Overcast
9:53 AM 39.9 °F 37.8 °F 33.1 °F 77% 30.07 in 10.0 mi North 3.5 mph - N/A   Overcast
10:53 AM 44.1 °F - 34.0 °F 68% 30.07 in 10.0 mi Calm Calm - N/A   Mostly Cloudy
11:53 AM 46.9 °F - 33.1 °F 59% 30.07 in 10.0 mi Calm Calm - N/A   Overcast
12:53 PM 51.1 °F - 32.0 °F 48% 30.06 in 10.0 mi East 3.5 mph - N/A   Overcast
1:53 PM 53.6 °F - 28.4 °F 38% 30.02 in 10.0 mi ESE 4.6 mph - N/A   Overcast
2:53 PM 53.1 °F - 28.9 °F 40% 30.04 in 10.0 mi ENE 3.5 mph - N/A   Overcast
3:53 PM 53.1 °F - 28.0 °F 38% 30.03 in 10.0 mi Calm Calm - N/A   Overcast
4:53 PM 53.1 °F - 28.9 °F 40% 30.03 in 10.0 mi NNE 3.5 mph - N/A   Overcast
5:53 PM 50.0 °F - 30.2 °F 47% 30.00 in 10.0 mi NE 5.8 mph - N/A   Overcast
6:53 PM 50.0 °F - 28.9 °F 44% 30.04 in 10.0 mi Calm Calm - N/A   Overcast
7:53 PM 46.0 °F 42.5 °F 35.1 °F 66% 30.07 in 10.0 mi North 6.9 mph - N/A   Overcast
8:53 PM 46.0 °F 41.9 °F 34.0 °F 63% 30.07 in 10.0 mi NNE 8.1 mph - N/A   Overcast
9:53 PM 46.9 °F - 34.0 °F 61% 30.08 in 10.0 mi NE 8.1 mph - N/A   Overcast
10:53 PM 46.0 °F 40.6 °F 32.0 °F 58% 30.09 in 10.0 mi NNE 11.5 mph - N/A   Overcast
11:53 PM 44.1 °F 38.6 °F 35.1 °F 71% 30.10 in 10.0 mi NNE 10.4 mph 17.3 mph 0.00 in Rain Light Rain